TimeCDT,TemperatureF,Dew PointF,Humidity,Sea Level PressureIn,VisibilityMPH,Wind Direction,Wind SpeedMPH,Gust SpeedMPH,PrecipitationIn,Events,Conditions,WindDirDegrees,DateUTC
12:52 AM,73.0,69.1,87,29.94,10.0,SSW,8.1,-,N/A,,Clear,200,2013-06-24 05:52:00
1:52 AM,72.0,69.1,91,29.94,9.0,SSW,5.8,-,N/A,,Clear,210,2013-06-24 06:52:00
2:52 AM,71.1,68.0,90,29.94,8.0,SW,5.8,-,N/A,,Clear,220,2013-06-24 07:52:00
3:52 AM,70.0,66.9,90,29.94,8.0,SSW,6.9,-,N/A,,Clear,210,2013-06-24 08:52:00
4:52 AM,70.0,66.9,90,29.94,8.0,SSW,9.2,-,N/A,,Clear,210,2013-06-24 09:52:00
5:52 AM,71.1,68.0,90,29.96,7.0,SSW,12.7,-,N/A,,Mostly Cloudy,210,2013-06-24 10:52:00
6:52 AM,71.1,66.9,87,29.97,9.0,SSW,11.5,-,N/A,,Partly Cloudy,210,2013-06-24 11:52:00
7:52 AM,72.0,66.0,81,29.99,10.0,SW,10.4,21.9,N/A,,Overcast,220,2013-06-24 12:52:00
8:52 AM,70.0,66.9,90,30.03,4.0,SW,10.4,-,0.03,Rain,Rain,220,2013-06-24 13:52:00
9:07 AM,69.8,66.2,88,30.06,5.0,SW,12.7,-,0.01,Rain,Light Rain,220,2013-06-24 14:07:00
9:52 AM,71.1,68.0,90,30.00,10.0,SW,8.1,-,0.01,,Mostly Cloudy,230,2013-06-24 14:52:00
10:52 AM,73.9,66.0,76,29.99,10.0,SW,15.0,23.0,N/A,,Clear,220,2013-06-24 15:52:00
11:52 AM,75.0,64.9,71,29.95,10.0,SSW,13.8,-,N/A,,Partly Cloudy,210,2013-06-24 16:52:00
12:52 PM,80.1,64.0,58,29.94,10.0,SSW,6.9,-,N/A,,Clear,210,2013-06-24 17:52:00
1:52 PM,80.1,64.0,58,29.95,10.0,SSW,12.7,-,N/A,,Clear,210,2013-06-24 18:52:00
2:52 PM,75.9,66.0,71,29.94,9.0,SE,10.4,-,N/A,,Scattered Clouds,130,2013-06-24 19:52:00
3:52 PM,77.0,64.9,66,29.92,10.0,ESE,8.1,-,N/A,,Clear,110,2013-06-24 20:52:00
4:52 PM,75.9,66.9,74,29.92,9.0,ESE,5.8,-,N/A,,Clear,110,2013-06-24 21:52:00
5:52 PM,73.9,66.0,76,29.89,9.0,SE,8.1,-,N/A,,Clear,130,2013-06-24 22:52:00
6:52 PM,73.0,63.0,71,29.87,10.0,SW,15.0,32.2,N/A,,Partly Cloudy,220,2013-06-24 23:52:00
7:03 PM,71.6,62.6,73,29.90,10.0,SW,15.0,24.2,N/A,,Partly Cloudy,230,2013-06-25 00:03:00
7:52 PM,68.0,64.0,87,29.81,10.0,Variable,6.9,-,0.01,Rain,Light Rain,0,2013-06-25 00:52:00
8:52 PM,69.1,64.9,87,29.86,10.0,Variable,4.6,-,0.00,,Scattered Clouds,0,2013-06-25 01:52:00
9:52 PM,69.1,64.9,87,29.89,10.0,Variable,4.6,17.3,N/A,,Clear,0,2013-06-25 02:52:00
10:52 PM,68.0,64.9,90,29.91,10.0,SSW,10.4,-,N/A,,Clear,200,2013-06-25 03:52:00
11:52 PM,66.9,64.9,93,29.91,10.0,SW,4.6,-,N/A,,Clear,220,2013-06-25 04:52:00